Regional Weather Roundup
Issued by NWS Albany, NY

Home | Current Version | Previous Version | Text Only | Print | Product List | Glossary On
Versions: 1 2 3 4 5 6 7 8 9 10 11 12 13 14 15 16 17 18 19 20 21 22 23 24 25 26 27
000
ASUS41 KALY 301410
RWRALY

NEW YORK STATE HOURLY WEATHER ROUNDUP
NATIONAL WEATHER SERVICE ALBANY NY
1000 AM EDT SAT APR 30 2016

NOTE: "FAIR" INDICATES FEW OR NO CLOUDS BELOW 12,000 FEET WITH NO
SIGNIFICANT WEATHER AND/OR NO OBSTRUCTIONS TO VISIBILITY.

NYZ032-033-038>043-046>054-057>066-NYZ062>081-082-084-301500-
EAST


CITY           SKY/WX    TMP DP  RH WIND       PRES   REMARKS
ALBANY         MOSUNNY   54  27  35 N8        30.22F
GLENS FALLS    MOSUNNY   52  23  32 NE7       30.22F
POUGHKEEPSIE   MOSUNNY   53  43  68 CALM      30.21S
NEWBURGH       PTSUNNY   52  43  71 CALM      30.22S
MONTGOMERY     SUNNY     52  42  69 CALM      30.21S
WHITE PLAINS   MOSUNNY   52  41  66 CALM      30.21S
ISLIP          MOSUNNY   56  39  53 E5        30.21S
NEW YORK CITY  PTSUNNY   53  38  56 CALM      30.22S
CENTRAL PARK   CLOUDY    53  35  50 NE3       30.24S
$$

NYZ005>009-017-018-044>046-055-056-301500-
CENTRAL


CITY           SKY/WX    TMP DP  RH WIND       PRES   REMARKS
FULTON         SUNNY     57  34  41 VRB5      30.21S
SYRACUSE       MOSUNNY   54  43  66 CALM      30.20F
ROME           SUNNY     50  43  77 CALM      30.22F
ELMIRA         CLOUDY    48  41  76 CALM      30.20S
BINGHAMTON     CLOUDY    44  40  85 CALM      30.18F
MONTICELLO     CLOUDY    46  43  87 CALM      30.21S
$$

NYZ026>034-041>043-087-301500-
NORTH


CITY           SKY/WX    TMP DP  RH WIND       PRES   REMARKS
WATERTOWN      SUNNY     54  22  28 NE9G18    30.22S
FORT DRUM      NOT AVBL
MASSENA        SUNNY     51  20  29 NE10      30.28S
SARANAC LAKE   SUNNY     49  11  21 NE7       30.19F
PLATTSBURGH    SUNNY     48  22  35 NE8       30.28S
$$

NYZ001>004-010>016-019>021-085-301500-
WEST


CITY           SKY/WX    TMP DP  RH WIND       PRES   REMARKS
NIAGARA FALLS  PTSUNNY   54  35  48 E7        30.20R
BUFFALO        PTSUNNY   54  34  46 E12       30.19S
DUNKIRK        MOSUNNY   51  42  71 E12       30.19S
JAMESTOWN      CLOUDY    46  37  71 E15       30.15F
WELLSVILLE     CLOUDY    44  41  89 SE6       30.18S
ROCHESTER      MOSUNNY   53  29  39 E8        30.22S
PENN YAN       CLOUDY    50  41  71 NE3       30.21F
$$

             KEY
       WCI = WIND CHILL INDEX
       VSB = VISIBILITY
       HX  = HEAT INDEX
$$




USA.gov is the U.S. government's official web portal to all federal, state and local government web resources and services.